Location: Unspecified
(47.4992°N, 121.7766°W)
Time: 14:03:27
(UTC-07:00)

CZ-3 Stage 3 - Visible Passes

Search period start: 25 September 2018 00:00
Search period end: 05 October 2018 00:00
Orbit: 368 x 34824 km, 30.5° (Epoch: 24 September)

Date Brightness Start Highest point End Pass type
(mag) Time Alt. Az. Time Alt. Az. Time Alt. Az.
25 Sep 8.1 14:25:40 10° ESE 20:38:01 52° ESE 22:32:19 10° E visible
26 Sep 6.8 20:42:51 10° SW 23:10:47 35° WSW 05:37:16 10° SSW visible
27 Sep 7.2 16:52:40 10° S 22:22:07 64° SSW 02:06:30 10° SE visible
28 Sep 8.1 14:12:12 10° ESE 20:26:03 52° ESE 22:21:58 10° E visible
29 Sep 6.9 20:31:47 10° SW 22:59:48 36° WSW 05:26:50 10° SSW visible
30 Sep 7.2 16:41:52 10° S 22:08:27 64° SSW 01:56:17 10° SE visible
01 Oct 8.0 13:58:49 10° ESE 20:14:07 52° ESE 22:11:37 10° E visible
02 Oct 6.9 20:20:45 10° SW 22:48:49 37° WSW 05:16:22 10° SSW visible
03 Oct 7.2 16:31:06 10° S 21:55:02 65° SSW 01:46:04 10° SE visible
04 Oct 8.3 13:45:30 10° ESE 20:02:11 51° ESE 21:48:58 24° E visible
